2024-167B

Last updated on Fri Oct 04 2024 00:02:04 GMT+0000 (Coordinated Universal Time)

1 61183U 24167B 24277.01916907 -.00000002 00000+0 00000+0 0 9995 2 61183 55.4110 238.3539 0060848 98.7135 359.1621 1.70653773 252
UTC large
Height (km)
Speed (km/s)
/
Latitude / Longitude
Inclination (degrees)
Orbital Period (minutes)
Azimuth
Elevation
Range (km)
Doppler Factor

Next 0 passes for location: London (51.5072 / 0.1276)

Sorry there are no passes over London.